YAOGAN-31 C

Satellite information

Favourite Embed

Satellite Type and Status

PAYLOADIN ORBIT

Key statistics

Satellite YAOGAN-31 C at a glance.

Uptime

2758

Days in orbit

Revolutions

≈ 13.5

Per day

Orbit

LEO

Low Earth Orbit

Inclination

63.4

Latest

Satellite identification and parameters

Extended collection of information and parameters for YAOGAN-31 C.

Object identification

Identified? True

Debris? False

Object name: YAOGAN-31 C

International designator: 2018-034C

Object number (NORAD): 43277

Object ID (CCSDS): 43277

Country: PEOPLES REPUBLIC OF CHINA (PRC)

Current information (Y/N): Y

RCS size: LARGE

Orbital parameters

Period: 107.03 minutes

Inclination: 63.3977 deg

SMA: 7467.317 km

Apoapsis: 1279.302 km

Periapsis: 899.063 km

RAAN: 328.0925 deg

Eccentricy: 0.02546021

Argument of periapsis: 6.405 deg

Mean anomaly: 354.0128 deg

Mean motion: 13.45413674 rev/day

Mean motion (dot): -0.00000018 rev/day2

B* drag term: 0.00010080965 1/REarth

Two-line elements (TLE)

Creation date: Oct. 28, 2025, 2:18 a.m.

Reference frame: TEME

Reference center: EARTH

Epoch: Oct. 27, 2025, 10:45 p.m. UTC

TLE line 0: 0 YAOGAN-31 C

TLE line 1: 1 43277U 18034C 25300.94791880 -.00000018 00000-0 10081-3 0 9998

TLE line 2: 2 43277 63.3977 328.0925 0254602 6.4050 354.0128 13.45413674370992

Live tracking on map

Real-time ground track for satellite YAOGAN-31 C.

In-orbit conjunctions

There are no conjunctions computed for YAOGAN-31 C, at the moment. Check back to stay up to date, as we update our databases every day.

Go to all conjunctions

Associated space launch

YAOGAN-31 C was lifted into orbit during the mission ‘Long March 4C | 3 x Yaogan-31-01’, on board a Long March 4C space rocket.

The launch took place on April 10, 2018, 4:25 a.m. from Launch Area 4 (SLS-2 / 603).

For more information about the launch, click the button.

Launch to space Long March 4C | 3 x Yaogan-31-01
Long March 4C | 3 x Yaogan-31-01

Agency: N/A

Status: Launch Successful

Launch date: April 10, 2018, 4:25 a.m. UTC

Rocket: Long March 4C

Launch pad: Launch Area 4 (SLS-2 / 603)

Location: Jiuquan Satellite Launch Center, People's Republic of China

...

Latest news about this satellite

There are no fresh news available about this satellite. Check back as we update our databases every day.


Newsletter sign-up

Weekly statistics, charts and insights to help you stay on top of the space industry.